Change the Weather History Date:

Tuesday, September 6, 2011

  Actual Average Record
Temperature  
Mean Temperature 61 °F -  
Max Temperature 65 °F 64 °F 80 °F (2006)
Min Temperature 55 °F 51 °F 46 °F (2012)
Degree Days  
Heating Degree Days 4    
Growing Degree Days 11 (Base 50)    
Moisture  
Dew Point 55 °F    
Average Humidity 82    
Maximum Humidity 94    
Minimum Humidity 68    
Precipitation  
Precipitation 0.63 in - - ()
Sea Level Pressure  
Sea Level Pressure 29.75 in    
Wind  
Wind Speed 16 mph ()    
Max Wind Speed 24 mph    
Max Gust Speed 38 mph    
Visibility 7.0 miles    
Events Rain    
Averages and records for this station are not official NWS values.
T = Trace of Precipitation, MM = Missing Value Source: Averaged Metar Reports

Daily Weather History Graph

Daily Weather History Graph

Search for Another Location

Airport or City:

Trip Planner

Search our weather history database for the weather conditions in past years. The results will help you decide how hot, cold, wet, or windy it might be!

Date:

Astronomy

Sep. 06, 2011 Rise Set
Actual Time 6:21 AM BST 7:37 PM BST
Civil Twilight 5:47 AM BST 8:12 PM BST
Nautical Twilight 5:05 AM BST 8:53 PM BST
Astronomical Twilight 4:19 AM BST 9:38 PM BST
Moon 4:33 PM BST (9/6) No Moon Set
Length of Visible Light 14h 24m
Length of Day
13h 16m
Waxing Gibbous, 68% of the Moon is Illuminated
Sep 6
Waxing Gibbous
Sep 12
Full
Sep 20
Last Quarter
Sep 27
New
Oct 4
First Quarter

Hourly Weather History & Observations

Time (BST) Temp. Dew Point Humidity Pressure Visibility Wind Dir Wind Speed Gust Speed Precip Events Conditions
12:20 AM 59.0 °F 53.6 °F 82% 29.95 in 6.2 mi SW 15.0 mph - N/A   Scattered Clouds
12:50 AM 60 °F 54 °F 74% 29.94 in 15 mi SW 16.1 mph - -   Scattered Clouds
12:50 AM 60.8 °F 53.6 °F 77% 29.92 in 6.2 mi SW 15.0 mph - N/A   Scattered Clouds
1:20 AM 60.8 °F 53.6 °F 77% 29.92 in 6.2 mi SW 13.8 mph - N/A   Scattered Clouds
1:50 AM 60.8 °F 53.6 °F 77% 29.92 in 6.2 mi SW 13.8 mph - N/A   Scattered Clouds
2:20 AM 60.8 °F 53.6 °F 77% 29.89 in 6.2 mi SW 17.3 mph - N/A   Partly Cloudy
2:50 AM 60.8 °F 53.6 °F 77% 29.89 in 6.2 mi SW 15.0 mph - N/A   Partly Cloudy
3:20 AM 60.8 °F 53.6 °F 77% 29.86 in 6.2 mi SW 15.0 mph - N/A   Partly Cloudy
3:50 AM 61 °F 54 °F 73% 29.86 in 13 mi SSW 20.7 mph - -   Scattered Clouds
3:50 AM 60.8 °F 53.6 °F 77% 29.86 in 6.2 mi SW 16.1 mph - N/A   Partly Cloudy
4:20 AM 60.8 °F 53.6 °F 77% 29.86 in 6.2 mi SSW 16.1 mph - N/A   Scattered Clouds
4:50 AM 60.8 °F 55.4 °F 82% 29.86 in 6.2 mi SW 16.1 mph - N/A Rain Light Rain
5:20 AM 59.0 °F 55.4 °F 88% 29.83 in 6.2 mi SW 15.0 mph - N/A Rain Light Rain
5:50 AM 60.8 °F 55.4 °F 82% 29.80 in 6.2 mi SSW 15.0 mph - N/A Rain Light Rain
6:20 AM 60.8 °F 55.4 °F 82% 29.80 in 6.2 mi SW 18.4 mph - N/A Rain Light Rain
6:50 AM 60 °F 56 °F 81% 29.79 in 12 mi SSW 19.6 mph - - Rain Light Rain
6:50 AM 60.8 °F 55.4 °F 82% 29.77 in 6.2 mi SW 17.3 mph 28.8 mph N/A Rain Light Rain
7:20 AM 60.8 °F 55.4 °F 82% 29.77 in 6.2 mi SW 17.3 mph - N/A   Mostly Cloudy
7:50 AM 59.0 °F 55.4 °F 88% 29.77 in 6.2 mi SW 19.6 mph - N/A Rain Light Rain
8:20 AM 59.0 °F 55.4 °F 88% 29.77 in 6.2 mi SW 19.6 mph 32.2 mph N/A Rain Light Rain
8:50 AM 59.0 °F 55.4 °F 88% 29.74 in 4.3 mi SSW 18.4 mph 29.9 mph N/A Rain Light Rain
9:20 AM 59.0 °F 57.2 °F 94% 29.74 in 5.6 mi SSW 20.7 mph 38.0 mph N/A Rain Light Rain
9:50 AM 60 °F 58 °F 90% 29.73 in 2 mi SSW 24.2 mph - - Rain Rain
9:50 AM 59.0 °F 57.2 °F 94% 29.74 in - SSW 19.6 mph 31.1 mph N/A Rain Light Rain
10:20 AM 59.0 °F 57.2 °F 94% 29.71 in 4.3 mi SSW 18.4 mph - N/A Rain Light Rain
10:50 AM 60.8 °F 59.0 °F 94% 29.71 in 3.7 mi SW 19.6 mph 33.4 mph N/A Rain Light Rain
11:20 AM 60.8 °F 59.0 °F 94% 29.71 in 5.0 mi SW 19.6 mph 31.1 mph N/A Rain Light Rain
11:50 AM 62.6 °F 59.0 °F 88% 29.71 in 6.2 mi SW 18.4 mph - N/A   Mostly Cloudy
12:20 PM 62.6 °F 59.0 °F 88% 29.68 in 6.2 mi SW 20.7 mph - N/A   Mostly Cloudy
12:50 PM 64 °F 60 °F 84% 29.69 in 34 mi SW 23.0 mph - - Rain Rain
12:50 PM 62.6 °F 59.0 °F 88% 29.68 in 6.2 mi SW 18.4 mph - N/A   Mostly Cloudy
1:20 PM 64.4 °F 59.0 °F 83% 29.68 in 6.2 mi SW 19.6 mph - N/A   Mostly Cloudy
1:50 PM 64.4 °F 59.0 °F 83% 29.68 in 6.2 mi SW 21.9 mph 35.7 mph N/A   Mostly Cloudy
2:20 PM 64.4 °F 59.0 °F 83% 29.68 in 6.2 mi SW 20.7 mph 36.8 mph N/A   Mostly Cloudy
2:50 PM 64.4 °F 59.0 °F 83% 29.65 in 6.2 mi SW 20.7 mph 32.2 mph N/A   Mostly Cloudy
3:20 PM 64.4 °F 59.0 °F 83% 29.68 in 6.2 mi SW 21.9 mph 33.4 mph N/A Rain Light Rain
3:50 PM 64 °F 60 °F 83% 29.66 in 15 mi SW 23.0 mph - - Rain Light Rain Showers
3:50 PM 64.4 °F 59.0 °F 83% 29.65 in 6.2 mi SW 19.6 mph - N/A Rain Light Rain
4:20 PM 62.6 °F 59.0 °F 88% 29.65 in 6.2 mi West 19.6 mph - N/A Rain Rain
4:50 PM 60.8 °F 57.2 °F 88% 29.65 in 6.2 mi West 18.4 mph - N/A Rain Rain
5:20 PM 60.8 °F 55.4 °F 82% 29.65 in 6.2 mi WSW 20.7 mph - N/A   Partly Cloudy
5:50 PM 60.8 °F 53.6 °F 77% 29.65 in 6.2 mi WSW 18.4 mph - N/A   Partly Cloudy
6:20 PM 60.8 °F 53.6 °F 77% 29.65 in 6.2 mi WSW 15.0 mph - N/A   Partly Cloudy
6:50 PM 60 °F 54 °F 74% 29.65 in 16 mi SW 13.8 mph - -   Partly Cloudy
6:50 PM 60.8 °F 53.6 °F 77% 29.65 in 6.2 mi WSW 13.8 mph - N/A   Partly Cloudy
7:20 PM 59.0 °F 53.6 °F 82% 29.65 in 6.2 mi WSW 15.0 mph - N/A   Partly Cloudy
7:50 PM 59.0 °F 53.6 °F 82% 29.65 in 6.2 mi WSW 12.7 mph - N/A   Scattered Clouds
8:20 PM 60.8 °F 50.0 °F 68% 29.68 in 6.2 mi West 20.7 mph - N/A   Scattered Clouds
8:50 PM 59.0 °F 51.8 °F 77% 29.68 in 6.2 mi WSW 18.4 mph - N/A   Partly Cloudy
9:20 PM 57.2 °F 50.0 °F 77% 29.71 in 6.2 mi WSW 18.4 mph - N/A   Partly Cloudy
9:50 PM 57 °F 50 °F 69% 29.71 in 18 mi WSW 15.0 mph - -   Mostly Cloudy
9:50 PM 57.2 °F 50.0 °F 77% 29.71 in 6.2 mi WSW 16.1 mph - N/A   Partly Cloudy
10:20 PM 59.0 °F 50.0 °F 72% 29.71 in - WSW 18.4 mph - N/A   Clear
10:50 PM 57.2 °F 50.0 °F 77% 29.71 in - WSW 17.3 mph - N/A   Clear
11:20 PM 57.2 °F 50.0 °F 77% 29.71 in - WSW 19.6 mph - N/A   Clear
11:50 PM 55.4 °F 50.0 °F 82% 29.74 in - WSW 17.3 mph - N/A   Clear